GW3529 Weather Reports


Display with metric or nautical units.
time (UTC)temp
F
wind
direction
speed
MPH
gust
MPH
rain 1hr
in
rain 24hr
in
rain mn
in
humidity
%
barometer
mb
20260831024553 63 333 0.0 0.0 0.00 0.00 0.00 62 1007.0
20260831023045 65 325 0.0 0.0 0.00 0.00 0.00 59 1006.7
20260831021548 65 11 0.0 0.0 0.00 0.00 0.00 59 1006.4
20260831020041 66 13 0.0 0.0 0.00 0.00 0.00 58 1006.0
20260831014538 66 340 0.0 1.0 0.00 0.00 0.00 56 1005.8
20260831013037 66 13 0.0 9.0 0.00 0.00 0.00 56 1005.7
20260831011536 66 326 3.0 13.0 0.00 0.00 0.00 57 1005.5
20260831010038 66 323 0.0 12.0 0.00 0.00 0.00 56 1005.4
20260831004535 67 349 10.0 21.0 0.00 0.00 0.00 56 1005.5
20260831003039 67 344 12.0 25.0 0.00 0.00 0.00 55 1005.4
20260831001531 67 355 13.0 26.0 0.00 0.00 0.00 56 1005.4
20260831000029 67 11 7.0 23.0 0.00 0.00 0.00 55 1005.0
20260830234540 68 355 9.0 23.0 0.00 0.00 0.00 56 1005.0
20260830233025 67 343 7.0 25.0 0.00 0.00 0.00 57 1004.8
20260830231525 67 342 22.0 34.0 0.00 0.00 0.00 57 1004.3
20260830230025 69 348 24.0 36.0 0.00 0.00 0.00 55 1004.1
20260830224518 72 325 24.0 39.0 0.00 0.00 0.00 51 1003.2
20260830223016 89 318 9.0 14.0 0.00 0.00 0.00 26 1001.5
20260830221525 89 286 3.0 11.0 0.00 0.00 0.00 27 1000.8
20260830220015 89 333 11.0 18.0 0.00 0.00 0.00 26 1000.7
20260830214513 89 289 10.0 15.0 0.00 0.00 0.00 26 1000.8
20260830213018 87 189 2.0 13.0 0.00 0.00 0.00 33 1000.8
20260830211509 86 189 6.0 13.0 0.00 0.00 0.00 35 1000.8
20260830210007 85 161 8.0 12.0 0.00 0.00 0.00 35 1001.0
20260830204608 86 170 7.0 12.0 0.00 0.00 0.00 35 1001.1
20260830203006 86 209 5.0 11.0 0.00 0.00 0.00 36 1001.2
20260830201506 86 163 6.0 14.0 0.00 0.00 0.00 34 1001.3
20260830200005 87 205 7.0 10.0 0.00 0.00 0.00 35 1001.4
20260830194503 87 201 10.0 16.0 0.00 0.00 0.00 34 1001.4
20260830193002 85 198 4.0 9.0 0.00 0.00 0.00 37 1001.6
20260830191502 83 177 9.0 15.0 0.00 0.00 0.00 38 1001.7
20260830190100 84 184 8.0 12.0 0.00 0.00 0.00 36 1001.7
20260830184558 86 194 9.0 15.0 0.00 0.00 0.00 34 1001.6
20260830183057 85 114 4.0 9.0 0.00 0.00 0.00 35 1001.8
20260830181559 86 350 6.0 9.0 0.00 0.00 0.00 34 1001.7
20260830180059 84 198 2.0 6.0 0.00 0.00 0.00 37 1002.0
20260830174559 83 217 0.0 6.0 0.00 0.00 0.00 37 1002.4
20260830173104 83 179 2.0 8.0 0.00 0.00 0.00 42 1002.6
20260830171650 82 64 1.0 8.0 0.00 0.00 0.00 41 1002.6
20260830170049 83 128 6.0 9.0 0.00 0.00 0.00 39 1002.6
20260830164557 84 281 1.0 4.0 0.00 0.00 0.00 42 1002.7
20260830163058 82 222 2.0 4.0 0.00 0.00 0.00 44 1002.9
20260830161539 81 153 1.0 5.0 0.00 0.00 0.00 45 1002.9
20260830160034 80 155 0.0 3.0 0.00 0.00 0.00 47 1002.9
20260830154535 78 108 2.0 4.0 0.00 0.00 0.00 48 1002.9
20260830153027 78 118 2.0 6.0 0.00 0.00 0.00 48 1002.7
20260830151525 78 116 3.0 7.0 0.00 0.00 0.00 52 1002.8
20260830150033 79 146 1.0 3.0 0.00 0.00 0.00 45 1002.7
20260830144519 77 146 0.0 1.0 0.00 0.00 0.00 48 1002.5
20260830143013 75 146 1.0 3.0 0.00 0.00 0.00 54 1002.7
20260830141512 72 150 0.0 2.0 0.00 0.00 0.00 61 1002.5
20260830140015 71 150 0.0 0.0 0.00 0.00 0.00 64 1002.4
20260830134520 67 150 0.0 3.0 0.00 0.00 0.00 67 1002.5
20260830133014 65 151 0.0 0.0 0.00 0.00 0.00 75 1002.5
20260830131511 63 151 0.0 0.0 0.00 0.00 0.00 79 1002.7
20260830130006 63 151 0.0 0.0 0.00 0.00 0.00 77 1002.7
20260830124503 63 151 0.0 0.0 0.00 0.00 0.00 75 1002.5
20260830123047 64 150 0.0 0.0 0.00 0.00 0.00 72 1002.5
20260830121544 64 150 0.0 3.0 0.00 0.00 0.00 72 1002.4
20260830120046 64 150 2.0 5.0 0.00 0.00 0.00 73 1002.4
20260830114543 63 145 2.0 5.0 0.00 0.00 0.00 74 1002.3
20260830113041 64 82 0.0 4.0 0.00 0.00 0.00 73 1002.3
20260830111541 64 78 0.0 1.0 0.00 0.00 0.00 72 1002.2
20260830110041 64 78 3.0 6.0 0.00 0.00 0.00 73 1002.2
20260830104539 64 177 3.0 4.0 0.00 0.00 0.00 68 1002.1
20260830103038 64 175 2.0 3.0 0.00 0.00 0.00 66 1002.2
20260830101539 63 174 1.0 4.0 0.00 0.00 0.00 67 1002.2
20260830100043 64 167 4.0 6.0 0.00 0.00 0.00 65 1002.3
20260830094532 64 154 0.0 3.0 0.00 0.00 0.00 64 1002.2
20260830093031 65 153 1.0 5.0 0.00 0.00 0.00 62 1002.2
20260830091534 64 155 3.0 6.0 0.00 0.00 0.00 63 1002.1
20260830090026 65 147 1.0 4.0 0.00 0.00 0.00 60 1001.9
20260830084523 67 143 2.0 4.0 0.00 0.00 0.00 58 1001.8
20260830083023 69 40 0.0 0.0 0.00 0.00 0.00 53 1001.6
20260830081520 69 40 3.0 6.0 0.00 0.00 0.00 53 1001.3
20260830080018 68 333 0.0 0.0 0.00 0.00 0.00 55 1001.1
20260830074515 69 333 0.0 5.0 0.00 0.00 0.00 53 1000.9
20260830073017 71 328 1.0 8.0 0.00 0.00 0.00 49 1000.8
20260830071517 70 9 1.0 8.0 0.00 0.00 0.00 51 1000.6
20260830070011 71 355 2.0 5.0 0.00 0.00 0.00 50 1000.5
20260830064508 70 300 1.0 3.0 0.00 0.00 0.00 52 1000.9
20260830063005 72 300 3.0 4.0 0.00 0.00 0.00 49 1001.3
20260830061559 75 222 1.0 5.0 0.00 0.00 0.00 44 1001.2
20260830060057 75 207 5.0 14.0 0.00 0.00 0.00 43 1001.4
20260830054557 75 241 5.0 14.0 0.00 0.00 0.00 44 1001.5
20260830053058 72 315 0.0 6.0 0.00 0.00 0.00 51 1001.5
20260830051554 73 14 10.0 15.0 0.00 0.00 0.00 50 1001.4
20260830050054 75 259 6.0 19.0 0.00 0.00 0.00 46 1001.3
20260830044556 74 258 8.0 15.0 0.00 0.00 0.00 47 1001.2
20260830043053 74 280 3.0 13.0 0.00 0.00 0.00 50 1001.2
20260830041607 74 304 4.0 10.0 0.00 0.00 0.00 54 1001.3
20260830040101 74 279 3.0 8.0 0.00 0.00 0.00 56 1001.5
20260830034552 73 217 5.0 12.0 0.00 0.00 0.00 60 1001.7
20260830033053 72 186 2.0 6.0 0.00 0.00 0.00 63 1001.7
20260830031550 73 174 3.0 9.0 0.00 0.00 0.00 61 1001.5
20260830030050 73 175 6.0 10.0 0.00 0.00 0.00 61 1001.3